Location: Unspecified
(0.0000°N, 0.0000°E)
Time: 18:32:23
(UTC+00:00)

NTS 1 - Visible Passes

Search period start: 17 May 2026 00:00
Search period end: 27 May 2026 00:00
Orbit: 13477 x 13744 km, 124.9° (Epoch: 16 May)

Date Brightness Start Highest point End Pass type
(mag) Time Alt. Az. Time Alt. Az. Time Alt. Az.
17 May ? 05:18:56 10° SSE 05:49:38 18° S 06:20:24 10° SW visible
17 May ? 17:06:10 10° NNE 17:36:41 18° N 18:07:31 10° NW visible
17 May ? 22:19:30 10° SE 23:25:45 76° NE 00:30:19 10° NW visible
18 May ? 04:52:12 10° SSE 05:24:50 19° S 05:57:41 10° SW visible
18 May ? 21:52:38 10° SE 22:57:57 69° NE 00:01:13 10° NW visible
19 May ? 04:24:25 10° SSE 04:59:53 21° SSW 05:35:45 10° SW visible
19 May ? 21:26:23 10° ESE 22:30:17 62° NE 23:31:51 10° NNW visible
20 May ? 03:55:51 10° SSE 04:34:42 23° SSW 05:14:09 10° WSW visible
20 May ? 21:30:31 37° E 22:02:48 55° NE 23:02:17 10° NNW visible
21 May ? 03:26:46 10° SSE 04:09:15 26° SSW 04:41:46 16° WSW visible
21 May ? 20:56:26 27° E 21:35:30 49° NE 22:32:32 10° NNW visible
22 May ? 02:57:18 10° SSE 03:43:29 30° SSW 04:06:27 24° SW visible
22 May ? 20:22:17 18° E 21:08:29 43° NE 22:02:42 10° NNW visible
23 May ? 02:27:39 10° SSE 03:17:24 34° SSW 03:31:11 32° SW visible
23 May ? 19:48:31 10° E 20:41:44 38° NNE 21:32:49 10° NNW visible
24 May ? 01:57:55 10° SSE 02:51:00 39° SSW 03:45:32 10° W visible
24 May ? 19:25:49 10° E 20:15:17 33° NNE 21:02:59 10° NNW visible
25 May ? 01:28:09 10° SSE 03:02:30 26° W 03:21:55 10° WNW visible
25 May ? 19:03:41 10° ENE 19:49:10 29° NNE 20:33:15 10° NNW visible
26 May ? 00:58:26 10° SSE 02:28:15 35° W 02:57:33 10° WNW visible
26 May ? 18:41:56 10° ENE 19:23:22 25° NNE 20:03:46 10° NNW visible
